Hourly Weather Barrancas

Today, 18 April, Sunday

Time Temperature Precipitation Wind Pressure Humidity
00:00 +21°C° 0.1 mm 1 mps 676 mmHg 85%
01:00 +21°C° 0 mm 1 mps 676 mmHg 88%
02:00 +21°C° 0 mm 1 mps 676 mmHg 86%
03:00 +21°C° 0 mm 1 mps 675 mmHg 85%
04:00 +21°C° 0 mm 1 mps 675 mmHg 84%
05:00 +22°C° 0.1 mm 1 mps 676 mmHg 81%
06:00 +23°C° 0.1 mm 1 mps 676 mmHg 78%
07:00 +24°C° 0.1 mm 1 mps 677 mmHg 75%
08:00 +25°C° 0 mm 2 mps 678 mmHg 66%
09:00 +27°C° 0 mm 2 mps 678 mmHg 57%
10:00 +29°C° 0 mm 2 mps 678 mmHg 48%
11:00 +29°C° 0.2 mm 2 mps 678 mmHg 50%
12:00 +29°C° 0.2 mm 2 mps 677 mmHg 52%
13:00 +29°C° 0.2 mm 2 mps 677 mmHg 54%
14:00 +28°C° 0.3 mm 2 mps 676 mmHg 57%
15:00 +28°C° 0.3 mm 2 mps 676 mmHg 59%
16:00 +27°C° 0.3 mm 1 mps 675 mmHg 62%
17:00 +26°C° 0.4 mm 1 mps 676 mmHg 68%
18:00 +24°C° 0.4 mm 1 mps 676 mmHg 75%
19:00 +22°C° 0.4 mm 1 mps 676 mmHg 81%
20:00 +22°C° 0.4 mm 1 mps 676 mmHg 81%
21:00 +22°C° 0.4 mm 1 mps 677 mmHg 80%
22:00 +22°C° 0.4 mm 1 mps 677 mmHg 80%
23:00 +22°C° 0 mm 1 mps 677 mmHg 79%

Tomorrow, 19 April, Monday

Time Temperature Precipitation Wind Pressure Humidity
00:00 +22°C° 0 mm 1 mps 676 mmHg 78%
01:00 +22°C° 0 mm 1 mps 676 mmHg 78%
02:00 +21°C° 0 mm 1 mps 676 mmHg 77%
03:00 +21°C° 0 mm 1 mps 676 mmHg 76%
04:00 +21°C° 0 mm 1 mps 676 mmHg 75%
05:00 +22°C° 0 mm 1 mps 676 mmHg 73%
06:00 +23°C° 0 mm 1 mps 677 mmHg 71%
07:00 +23°C° 0 mm 1 mps 678 mmHg 69%
08:00 +25°C° 0 mm 2 mps 678 mmHg 62%
09:00 +27°C° 0 mm 2 mps 678 mmHg 54%
10:00 +28°C° 0 mm 3 mps 679 mmHg 47%
11:00 +29°C° 0 mm 2 mps 678 mmHg 46%
12:00 +29°C° 0 mm 2 mps 678 mmHg 45%
13:00 +30°C° 0 mm 2 mps 677 mmHg 44%
14:00 +29°C° 0.1 mm 2 mps 677 mmHg 47%
15:00 +29°C° 0.1 mm 2 mps 676 mmHg 49%
16:00 +28°C° 0.1 mm 2 mps 676 mmHg 52%
17:00 +26°C° 0.2 mm 1 mps 676 mmHg 61%
18:00 +24°C° 0.2 mm 1 mps 676 mmHg 69%
19:00 +22°C° 0.2 mm 1 mps 676 mmHg 78%
20:00 +21°C° 0 mm 1 mps 677 mmHg 77%
21:00 +21°C° 0 mm 1 mps 677 mmHg 76%
22:00 +21°C° 0 mm 1 mps 677 mmHg 75%
23:00 +21°C° 0 mm 1 mps 677 mmHg 74%

Day after tomorrow, 20 April, Tuesday

Time Temperature Precipitation Wind Pressure Humidity
00:00 +21°C° 0 mm 1 mps 677 mmHg 73%
01:00 +21°C° 0 mm 1 mps 676 mmHg 73%
02:00 +20°C° 0 mm 1 mps 676 mmHg 73%
03:00 +20°C° 0 mm 1 mps 676 mmHg 74%
04:00 +20°C° 0 mm 1 mps 676 mmHg 75%
05:00 +21°C° 0 mm 1 mps 677 mmHg 71%
06:00 +22°C° 0 mm 1 mps 677 mmHg 66%
07:00 +23°C° 0 mm 1 mps 678 mmHg 62%
08:00 +25°C° 0 mm 2 mps 678 mmHg 55%
09:00 +27°C° 0 mm 2 mps 679 mmHg 48%
10:00 +29°C° 0 mm 3 mps 679 mmHg 41%
11:00 +29°C° 0 mm 3 mps 679 mmHg 41%
12:00 +29°C° 0 mm 3 mps 678 mmHg 41%
13:00 +30°C° 0 mm 3 mps 677 mmHg 41%
14:00 +29°C° 0.1 mm 2 mps 677 mmHg 44%
15:00 +29°C° 0.1 mm 2 mps 677 mmHg 46%
16:00 +28°C° 0.1 mm 2 mps 676 mmHg 49%
17:00 +26°C° 0.2 mm 1 mps 676 mmHg 58%
18:00 +24°C° 0.2 mm 1 mps 676 mmHg 67%
19:00 +21°C° 0.2 mm 1 mps 676 mmHg 77%
20:00 +21°C° 0 mm 1 mps 677 mmHg 77%
21:00 +21°C° 0 mm 1 mps 677 mmHg 77%
22:00 +21°C° 0 mm 1 mps 677 mmHg 77%
23:00 +21°C° 0 mm 1 mps 677 mmHg 75%

21 April, Wednesday

Time Temperature Precipitation Wind Pressure Humidity
00:00 +20°C° 0 mm 1 mps 676 mmHg 74%
01:00 +20°C° 0 mm 1 mps 676 mmHg 73%
02:00 +20°C° 0 mm 1 mps 676 mmHg 73%
03:00 +20°C° 0 mm 1 mps 676 mmHg 73%
04:00 +20°C° 0 mm 1 mps 676 mmHg 73%
05:00 +21°C° 0 mm 1 mps 676 mmHg 69%
06:00 +22°C° 0 mm 1 mps 677 mmHg 64%
07:00 +22°C° 0 mm 0 mps 677 mmHg 60%
08:00 +25°C° 0 mm 1 mps 678 mmHg 55%
09:00 +27°C° 0 mm 1 mps 678 mmHg 50%
10:00 +29°C° 0 mm 2 mps 679 mmHg 45%
11:00 +29°C° 0.1 mm 2 mps 678 mmHg 46%
12:00 +29°C° 0.1 mm 2 mps 678 mmHg 47%
13:00 +29°C° 0.1 mm 2 mps 677 mmHg 47%
14:00 +29°C° 0.2 mm 2 mps 677 mmHg 50%
15:00 +28°C° 0.2 mm 2 mps 676 mmHg 52%
16:00 +28°C° 0.2 mm 1 mps 676 mmHg 55%
17:00 +26°C° 0.4 mm 1 mps 676 mmHg 61%
18:00 +24°C° 0.4 mm 1 mps 676 mmHg 68%
19:00 +23°C° 0.4 mm 1 mps 676 mmHg 75%
20:00 +22°C° 0.1 mm 1 mps 676 mmHg 76%
21:00 +22°C° 0.1 mm 1 mps 677 mmHg 77%
22:00 +21°C° 0.1 mm 1 mps 677 mmHg 78%
23:00 +21°C° 0 mm 1 mps 676 mmHg 77%

22 April, Thursday

Time Temperature Precipitation Wind Pressure Humidity
00:00 +21°C° 0 mm 1 mps 676 mmHg 76%
01:00 +21°C° 0 mm 1 mps 676 mmHg 76%
02:00 +21°C° 0 mm 1 mps 676 mmHg 75%
03:00 +21°C° 0 mm 1 mps 676 mmHg 73%
04:00 +21°C° 0 mm 1 mps 676 mmHg 72%
05:00 +22°C° 0 mm 1 mps 676 mmHg 70%
06:00 +21°C° 0 mm 0 mps 677 mmHg 67%
07:00 +21°C° 0 mm 0 mps 677 mmHg 64%
08:00 +25°C° 0 mm 1 mps 678 mmHg 60%
09:00 +26°C° 0 mm 1 mps 678 mmHg 55%
10:00 +27°C° 0 mm 1 mps 678 mmHg 51%
11:00 +28°C° 0.1 mm 2 mps 678 mmHg 49%
12:00 +29°C° 0.1 mm 2 mps 677 mmHg 48%
13:00 +30°C° 0.1 mm 2 mps 677 mmHg 46%
14:00 +29°C° 0.1 mm 2 mps 676 mmHg 48%
15:00 +29°C° 0.1 mm 2 mps 676 mmHg 50%
16:00 +28°C° 0.1 mm 2 mps 675 mmHg 52%
17:00 +27°C° 0.3 mm 1 mps 675 mmHg 60%
18:00 +25°C° 0.3 mm 1 mps 675 mmHg 68%
19:00 +23°C° 0.3 mm 1 mps 676 mmHg 76%
20:00 +23°C° 0 mm 1 mps 676 mmHg 77%
21:00 +22°C° 0 mm 1 mps 676 mmHg 78%
22:00 +22°C° 0 mm 1 mps 676 mmHg 79%
23:00 +21°C° 0 mm 1 mps 676 mmHg 79%

23 April, Friday

Time Temperature Precipitation Wind Pressure Humidity
00:00 +21°C° 0 mm 1 mps 676 mmHg 78%
01:00 +21°C° 0 mm 1 mps 676 mmHg 78%
02:00 +21°C° 0 mm 1 mps 676 mmHg 76%
03:00 +21°C° 0 mm 1 mps 675 mmHg 75%
04:00 +22°C° 0 mm 1 mps 675 mmHg 73%
05:00 +22°C° 0 mm 1 mps 676 mmHg 70%
06:00 +21°C° 0 mm 0 mps 676 mmHg 66%
07:00 +22°C° 0 mm 0 mps 677 mmHg 63%
08:00 +26°C° 0 mm 1 mps 677 mmHg 59%
09:00 +27°C° 0 mm 1 mps 678 mmHg 54%
10:00 +28°C° 0 mm 2 mps 678 mmHg 50%
11:00 +29°C° 0.1 mm 2 mps 677 mmHg 50%
12:00 +29°C° 0.1 mm 2 mps 677 mmHg 49%
13:00 +29°C° 0.1 mm 2 mps 676 mmHg 49%
14:00 +29°C° 0.2 mm 2 mps 676 mmHg 51%
15:00 +29°C° 0.2 mm 2 mps 675 mmHg 53%
16:00 +28°C° 0.2 mm 1 mps 675 mmHg 55%
17:00 +26°C° 0.2 mm 1 mps 675 mmHg 63%
18:00 +24°C° 0.2 mm 1 mps 675 mmHg 71%
19:00 +20°C° 0.2 mm 0 mps 675 mmHg 79%
20:00 +22°C° 0 mm 1 mps 676 mmHg 80%
21:00 +22°C° 0 mm 1 mps 676 mmHg 80%
22:00 +22°C° 0 mm 1 mps 676 mmHg 80%
23:00 +22°C° 0 mm 1 mps 676 mmHg 80%
Show more